Flag for India Weather past 2 weeks in Navi Mumbai, Maharashtra, India

Now
77 °F

Passing clouds.


Feels Like: 78 °F
Forecast: 65 / 89 °F
Wind: No wind

Location: Bombay / Santacruz

Current Time: Dec 20, 2014 at 2:57:47 AM

Latest Report: Dec 20, 2014 at 2:10 AM


Visibility: 1 mi

Pressure: 29.95 "Hg

Humidity: 44%

Dew point: 54 °F

Location of Navi MumbaiLocation

Historic Weather in Navi Mumbai — Graph

°F

Navi Mumbai temperature yesterday

Maximum temperature yesterday: 90 °F (at 3:10 PM)
Minimum temperature yesterday: 72 °F (at 5:10 AM)
Average temperature yesterday: 79 °F

Past Weeks' High & Low Weather Summary

 TemperatureHumidityPressure
High93 °F (Dec 5, 1:40 PM)94% (Dec 12, 8:10 AM)30.04 "Hg (Dec 12, 8:10 AM)
Low66 °F (Dec 15, 4:10 AM)18% (Dec 15, 2:40 PM)29.80 "Hg (Dec 10, 2:40 PM)
Average80 °F48%29.92 "Hg
* Reported Dec 5 1:40 AM — Dec 20 1:40 AM, Navi Mumbai, Weather by CustomWeather, © 2014

Note: Actual official high and low records may vary slightly from our data, if they occured in-between our weather recording intervals... More about our weather records

Advertising

Navi Mumbai weather history for previous 24 hours

 ConditionsComfort  
Time TempWeatherWind HumidityBarometerVisibility
1:40 AM
Dec 20
77 °FPassing clouds.No wind44%29.95 "Hg1 mi
1:10 AM77 °FPassing clouds.5 mph44%29.98 "Hg1 mi
12:40 AM79 °FPassing clouds.No wind39%29.98 "Hg1 mi
12:10 AM79 °FPassing clouds.5 mph45%29.98 "Hg1 mi
11:40 PM
Dec 19
77 °FPassing clouds.3 mph47%29.98 "Hg1 mi
11:10 PM79 °FPassing clouds.No wind42%30.01 "Hg1 mi
10:40 PM79 °FPassing clouds.3 mph42%30.01 "Hg1 mi
9:40 PM81 °FClear.6 mph42%30.01 "Hg1 mi
9:10 PM81 °FPassing clouds.6 mph42%30.01 "Hg1 mi
8:40 PM82 °FPassing clouds.7 mph42%29.98 "Hg1 mi
8:10 PM81 °FPassing clouds.5 mph48%29.98 "Hg1 mi
7:40 PM82 °FPassing clouds.6 mph45%29.98 "Hg1 mi
7:10 PM82 °FPassing clouds.9 mph42%29.98 "Hg1 mi
6:40 PM82 °FPassing clouds.8 mph45%29.95 "Hg1 mi
6:10 PM81 °FPassing clouds.6 mph48%29.95 "Hg2 mi
5:10 PM88 °FPassing clouds.9 mph33%29.92 "Hg2 mi
4:40 PM88 °FPassing clouds.9 mph27%29.92 "Hg2 mi
4:10 PM88 °FPassing clouds.6 mph29%29.92 "Hg2 mi
3:40 PM90 °FPassing clouds.7 mph27%29.92 "Hg2 mi
3:10 PM90 °FPassing clouds.7 mph27%29.95 "Hg2 mi
1:40 PM86 °FPassing clouds.9 mph29%29.98 "Hg1 mi
1:10 PM86 °FPassing clouds.5 mph27%29.98 "Hg1 mi
12:40 PM86 °FPassing clouds.10 mph27%30.01 "Hg2 mi
12:10 PM84 °FPassing clouds.10 mph29%30.01 "Hg2 mi
11:10 AM82 °FPassing clouds.8 mph26%30.04 "Hg2 mi
10:40 AM81 °FPassing clouds.10 mph28%30.04 "Hg1 mi
10:10 AM81 °FPassing clouds.9 mph26%30.04 "Hg1 mi
9:40 AM79 °FPassing clouds.9 mph28%30.04 "Hg1 mi
9:10 AM77 °FPassing clouds.9 mph28%30.04 "Hg1 mi
8:40 AM75 °FPassing clouds.13 mph29%30.04 "Hg1 mi
8:10 AM73 °FPassing clouds.12 mph29%30.01 "Hg1 mi
7:40 AM73 °FPassing clouds.10 mph29%30.01 "Hg2 mi
7:10 AM73 °FPassing clouds.12 mph27%30.01 "Hg2 mi
6:40 AM73 °FPassing clouds.12 mph27%29.98 "Hg2 mi
5:40 AM73 °FClear.10 mph29%29.98 "Hg2 mi
5:10 AM72 °FClear.7 mph31%29.98 "Hg2 mi
4:40 AM73 °FClear.12 mph29%29.98 "Hg2 mi
4:10 AM73 °FClear.9 mph31%29.98 "Hg2 mi
3:40 AM73 °FClear.9 mph33%29.98 "Hg2 mi
2:40 AM73 °FClear.6 mph36%29.98 "Hg2 mi
2:10 AM75 °FClear.9 mph34%29.98 "Hg2 mi
Weather by CustomWeather, © 2014

See weather overviewHow to use our weather pages